When you browse on this site, cookies collect data to enhance your experience and personalize the content and advertising you see.
Visit our Privacy Policy to learn more. By continuing to use the site, you agree to this use of cookies and data.
  • In Hungary
  • List of Countries
  • For 7 days
  • Water Temperature
  • Satellite Maps
  • Weather Map
  • News
  • Weather Widgets
  • user-avatar
    Login

    Hourly Weather Thessaloniki

    Today, 21 January, Monday

    Time Temperature Precipitation Wind Pressure Humidity
    00:00 +8°C° 0 mm 1 mps 757 mmHg 93%
    01:00 +7°C° 0 mm 2 mps 757 mmHg 93%
    02:00 +7°C° 0 mm 1 mps 757 mmHg 93%
    03:00 +7°C° 0 mm 1 mps 757 mmHg 92%
    04:00 +7°C° 0 mm 1 mps 757 mmHg 92%
    05:00 +5°C° 0 mm 2 mps 757 mmHg 91%
    06:00 +5°C° 0 mm 2 mps 758 mmHg 90%
    07:00 +6°C° 0 mm 1 mps 758 mmHg 89%
    08:00 +6°C° 0 mm 1 mps 758 mmHg 88%
    09:00 +6°C° 0 mm 2 mps 758 mmHg 82%
    10:00 +7°C° 0 mm 2 mps 758 mmHg 76%
    11:00 +9°C° 0 mm 2 mps 758 mmHg 70%
    12:00 +10°C° 0 mm 2 mps 758 mmHg 67%
    13:00 +11°C° 0 mm 1 mps 758 mmHg 63%
    14:00 +12°C° 0 mm 1 mps 758 mmHg 59%
    15:00 +12°C° 0 mm 1 mps 758 mmHg 62%
    16:00 +12°C° 0 mm 1 mps 758 mmHg 65%
    17:00 +11°C° 0 mm 1 mps 758 mmHg 67%
    18:00 +10°C° 0 mm 1 mps 758 mmHg 71%
    19:00 +10°C° 0 mm 1 mps 758 mmHg 75%
    20:00 +9°C° 0 mm 1 mps 759 mmHg 79%
    21:00 +9°C° 0 mm 1 mps 759 mmHg 82%
    22:00 +8°C° 0 mm 1 mps 759 mmHg 84%
    23:00 +8°C° 0 mm 1 mps 759 mmHg 87%

    Tomorrow, 22 January, Tuesday

    Time Temperature Precipitation Wind Pressure Humidity
    00:00 +8°C° 0 mm 1 mps 759 mmHg 88%
    01:00 +8°C° 0 mm 1 mps 759 mmHg 89%
    02:00 +8°C° 0 mm 1 mps 759 mmHg 91%
    03:00 +8°C° 0.1 mm 1 mps 759 mmHg 92%
    04:00 +8°C° 0.1 mm 1 mps 758 mmHg 93%
    05:00 +8°C° 0.1 mm 1 mps 758 mmHg 94%
    06:00 +8°C° 0.1 mm 1 mps 758 mmHg 94%
    07:00 +8°C° 0.1 mm 1 mps 758 mmHg 94%
    08:00 +8°C° 0.1 mm 1 mps 758 mmHg 94%
    09:00 +8°C° 0.1 mm 2 mps 757 mmHg 92%
    10:00 +8°C° 0.1 mm 2 mps 757 mmHg 90%
    11:00 +9°C° 0.1 mm 2 mps 757 mmHg 88%
    12:00 +9°C° 0.1 mm 2 mps 756 mmHg 87%
    13:00 +10°C° 0.1 mm 2 mps 756 mmHg 85%
    14:00 +10°C° 0.1 mm 2 mps 755 mmHg 83%
    15:00 +10°C° 0.1 mm 2 mps 755 mmHg 84%
    16:00 +10°C° 0.1 mm 3 mps 754 mmHg 85%
    17:00 +10°C° 0.1 mm 3 mps 753 mmHg 86%
    18:00 +10°C° 0.2 mm 3 mps 753 mmHg 88%
    19:00 +10°C° 0.2 mm 3 mps 753 mmHg 90%
    20:00 +8°C° 0.2 mm 4 mps 752 mmHg 91%
    21:00 +10°C° 0.2 mm 4 mps 752 mmHg 91%
    22:00 +10°C° 0.2 mm 4 mps 751 mmHg 91%
    23:00 +10°C° 0.2 mm 4 mps 751 mmHg 91%

    Day after tomorrow, 23 January, Wednesday

    Time Temperature Precipitation Wind Pressure Humidity
    00:00 +10°C° 0.4 mm 3 mps 751 mmHg 92%
    01:00 +9°C° 0.4 mm 2 mps 750 mmHg 93%
    02:00 +9°C° 0.4 mm 2 mps 750 mmHg 94%
    03:00 +10°C° 0.1 mm 1 mps 750 mmHg 94%
    04:00 +9°C° 0.1 mm 1 mps 749 mmHg 94%
    05:00 +9°C° 0.1 mm 1 mps 749 mmHg 94%
    06:00 +9°C° 0 mm 1 mps 749 mmHg 93%
    07:00 +9°C° 0 mm 1 mps 749 mmHg 93%
    08:00 +9°C° 0 mm 1 mps 749 mmHg 93%
    09:00 +10°C° 0 mm 1 mps 750 mmHg 87%
    10:00 +11°C° 0 mm 1 mps 750 mmHg 81%
    11:00 +12°C° 0 mm 1 mps 750 mmHg 75%
    12:00 +13°C° 0 mm 1 mps 749 mmHg 71%
    13:00 +13°C° 0 mm 2 mps 749 mmHg 67%
    14:00 +14°C° 0 mm 2 mps 748 mmHg 63%
    15:00 +13°C° 0.1 mm 1 mps 748 mmHg 67%
    16:00 +13°C° 0.1 mm 1 mps 748 mmHg 70%
    17:00 +12°C° 0.1 mm 1 mps 748 mmHg 73%
    18:00 +12°C° 0.5 mm 1 mps 748 mmHg 78%
    19:00 +11°C° 0.5 mm 1 mps 748 mmHg 83%
    20:00 +11°C° 0.5 mm 1 mps 748 mmHg 88%
    21:00 +10°C° 0.6 mm 2 mps 747 mmHg 89%
    22:00 +10°C° 0.6 mm 2 mps 747 mmHg 90%
    23:00 +10°C° 0.6 mm 2 mps 747 mmHg 91%

    24 January, Thursday

    Time Temperature Precipitation Wind Pressure Humidity
    00:00 +10°C° 0.4 mm 2 mps 746 mmHg 91%
    01:00 +10°C° 0.4 mm 2 mps 746 mmHg 91%
    02:00 +10°C° 0.4 mm 2 mps 745 mmHg 91%
    03:00 +10°C° 0.2 mm 2 mps 745 mmHg 92%
    04:00 +10°C° 0.2 mm 2 mps 744 mmHg 93%
    05:00 +9°C° 0.2 mm 2 mps 744 mmHg 94%
    06:00 +9°C° 0.3 mm 2 mps 743 mmHg 94%
    07:00 +9°C° 0.3 mm 2 mps 743 mmHg 94%
    08:00 +9°C° 0.3 mm 2 mps 743 mmHg 94%
    09:00 +10°C° 0.3 mm 2 mps 743 mmHg 90%
    10:00 +11°C° 0.3 mm 3 mps 742 mmHg 86%
    11:00 +12°C° 0.3 mm 3 mps 742 mmHg 81%
    12:00 +11°C° 1.1 mm 4 mps 742 mmHg 83%
    13:00 +10°C° 1.1 mm 5 mps 741 mmHg 85%
    14:00 +9°C° 1.1 mm 5 mps 741 mmHg 87%
    15:00 +9°C° 0.4 mm 5 mps 741 mmHg 86%
    16:00 +10°C° 0.4 mm 4 mps 741 mmHg 86%
    17:00 +9°C° 0.4 mm 3 mps 741 mmHg 85%
    18:00 +9°C° 0.4 mm 3 mps 742 mmHg 87%
    19:00 +9°C° 0.4 mm 3 mps 742 mmHg 89%
    20:00 +9°C° 0.4 mm 2 mps 743 mmHg 91%
    21:00 +9°C° 0.5 mm 2 mps 743 mmHg 92%
    22:00 +8°C° 0.5 mm 2 mps 744 mmHg 92%
    23:00 +8°C° 0.5 mm 2 mps 744 mmHg 92%

    25 January, Friday

    Time Temperature Precipitation Wind Pressure Humidity
    00:00 +8°C° 0.1 mm 2 mps 745 mmHg 92%
    01:00 +8°C° 0.1 mm 2 mps 745 mmHg 92%
    02:00 +9°C° 0.1 mm 1 mps 745 mmHg 92%
    03:00 +9°C° 0 mm 1 mps 745 mmHg 92%
    04:00 +9°C° 0 mm 1 mps 745 mmHg 92%
    05:00 +9°C° 0 mm 1 mps 745 mmHg 92%
    06:00 +9°C° 0.3 mm 1 mps 745 mmHg 92%
    07:00 +9°C° 0.3 mm 1 mps 745 mmHg 92%
    08:00 +8°C° 0.3 mm 2 mps 746 mmHg 92%
    09:00 +8°C° 0.7 mm 2 mps 746 mmHg 90%
    10:00 +8°C° 0.7 mm 2 mps 746 mmHg 89%
    11:00 +9°C° 0.7 mm 2 mps 745 mmHg 88%
    12:00 +9°C° 0.4 mm 2 mps 745 mmHg 85%
    13:00 +10°C° 0.4 mm 3 mps 745 mmHg 83%
    14:00 +10°C° 0.4 mm 3 mps 745 mmHg 80%
    15:00 +10°C° 0.1 mm 3 mps 745 mmHg 80%
    16:00 +10°C° 0.1 mm 3 mps 745 mmHg 80%
    17:00 +9°C° 0.1 mm 2 mps 745 mmHg 80%
    18:00 +9°C° 0 mm 2 mps 745 mmHg 81%
    19:00 +8°C° 0 mm 2 mps 746 mmHg 82%
    20:00 +7°C° 0 mm 2 mps 746 mmHg 83%
    21:00 +7°C° 0 mm 3 mps 747 mmHg 83%
    22:00 +5°C° 0 mm 3 mps 747 mmHg 83%
    23:00 +5°C° 0 mm 3 mps 747 mmHg 82%

    26 January, Saturday

    Time Temperature Precipitation Wind Pressure Humidity
    00:00 +5°C° 0 mm 4 mps 747 mmHg 81%
    01:00 +4°C° 0 mm 4 mps 747 mmHg 80%
    02:00 +3°C° 0 mm 5 mps 747 mmHg 79%
    03:00 +3°C° 0 mm 5 mps 747 mmHg 77%
    04:00 +3°C° 0 mm 5 mps 747 mmHg 76%
    05:00 +2°C° 0 mm 5 mps 747 mmHg 74%
    06:00 +2°C° 0.1 mm 5 mps 747 mmHg 73%
    07:00 +2°C° 0.1 mm 6 mps 747 mmHg 72%
    08:00 +2°C° 0.1 mm 6 mps 748 mmHg 72%
    09:00 +2°C° 1.3 mm 6 mps 748 mmHg 73%
    10:00 +2°C° 1.3 mm 6 mps 748 mmHg 75%
    11:00 +2°C° 1.3 mm 6 mps 748 mmHg 77%
    12:00 +2°C° 1.2 mm 6 mps 748 mmHg 77%
    13:00 +3°C° 1.2 mm 6 mps 748 mmHg 77%
    14:00 +3°C° 1.2 mm 5 mps 748 mmHg 76%
    15:00 +3°C° 0.6 mm 5 mps 748 mmHg 76%
    16:00 +3°C° 0.6 mm 5 mps 748 mmHg 75%
    17:00 +3°C° 0.6 mm 5 mps 748 mmHg 75%
    18:00 +3°C° 0.3 mm 5 mps 749 mmHg 76%
    19:00 +3°C° 0.3 mm 4 mps 749 mmHg 76%
    20:00 +3°C° 0.3 mm 4 mps 750 mmHg 77%
    21:00 +3°C° 0.1 mm 4 mps 750 mmHg 77%
    22:00 +1°C° 0.1 mm 4 mps 750 mmHg 77%
    23:00 +1°C° 0.1 mm 4 mps 750 mmHg 77%
    Show more